| time (UTC) | temp F | wind direction | speed MPH | gust MPH | rain 1hr in | rain 24hr in | rain mn in | humidity % | barometer mb |
| 20260906231647 | 64 | 85 | 0.0 | 0.0 | 0.00 | 0.00 | 0.00 | 83 | 1045.9 |
| 20260906230641 | 65 | 85 | 0.0 | 0.0 | 0.00 | 0.00 | 0.00 | 80 | 1045.9 |
| 20260906225641 | 66 | 85 | 0.0 | 0.0 | 0.00 | 0.00 | 0.00 | 78 | 1045.8 |
| 20260906224638 | 67 | 83 | 1.0 | 1.0 | 0.00 | 0.00 | 0.00 | 78 | 1045.7 |
| 20260906223637 | 68 | 84 | 1.0 | 1.0 | 0.00 | 0.00 | 0.00 | 75 | 1046.0 |
| 20260906222635 | 69 | 82 | 1.0 | 1.0 | 0.00 | 0.00 | 0.00 | 74 | 1045.8 |
| 20260906221632 | 73 | 92 | 0.0 | 0.0 | 0.00 | 0.00 | 0.00 | 67 | 1045.7 |
| 20260906220628 | 73 | 96 | 0.0 | 0.0 | 0.00 | 0.00 | 0.00 | 65 | 1045.4 |
| 20260906215628 | 74 | 97 | 1.0 | 1.0 | 0.00 | 0.00 | 0.00 | 62 | 1045.2 |
| 20260906214626 | 74 | 178 | 2.0 | 2.0 | 0.00 | 0.00 | 0.00 | 59 | 1045.5 |
| 20260906213625 | 75 | 160 | 3.0 | 3.0 | 0.00 | 0.00 | 0.00 | 56 | 1045.3 |
| 20260906212623 | 75 | 104 | 2.0 | 2.0 | 0.00 | 0.00 | 0.00 | 57 | 1045.2 |
| 20260906211618 | 76 | 70 | 1.0 | 2.0 | 0.00 | 0.00 | 0.00 | 61 | 1045.1 |
| 20260906210616 | 76 | 111 | 1.0 | 1.0 | 0.00 | 0.00 | 0.00 | 60 | 1045.0 |
| 20260906205612 | 73 | 82 | 1.0 | 1.0 | 0.00 | 0.00 | 0.00 | 65 | 1045.1 |
| 20260906204607 | 74 | 137 | 3.0 | 3.0 | 0.00 | 0.00 | 0.00 | 59 | 1045.1 |
| 20260906203601 | 77 | 157 | 5.0 | 7.0 | 0.00 | 0.00 | 0.00 | 56 | 1044.8 |
| 20260906202559 | 77 | 179 | 5.0 | 6.0 | 0.00 | 0.00 | 0.00 | 55 | 1044.8 |
| 20260906201559 | 77 | 206 | 2.0 | 2.0 | 0.00 | 0.00 | 0.00 | 57 | 1045.0 |
| 20260906200555 | 75 | 38 | 3.0 | 3.0 | 0.00 | 0.00 | 0.00 | 57 | 1044.6 |
| 20260906195551 | 76 | 165 | 3.0 | 3.0 | 0.00 | 0.00 | 0.00 | 56 | 1045.0 |
| 20260906194549 | 75 | 105 | 2.0 | 2.0 | 0.00 | 0.00 | 0.00 | 56 | 1045.0 |
| 20260906193545 | 77 | 131 | 3.0 | 3.0 | 0.00 | 0.00 | 0.00 | 53 | 1045.0 |
| 20260906192541 | 76 | 94 | 1.0 | 1.0 | 0.00 | 0.00 | 0.00 | 54 | 1045.1 |
| 20260906191542 | 75 | 111 | 1.0 | 1.0 | 0.00 | 0.00 | 0.00 | 58 | 1045.2 |
| 20260906190540 | 76 | 152 | 2.0 | 2.0 | 0.00 | 0.00 | 0.00 | 58 | 1044.9 |
| 20260906185534 | 75 | 103 | 1.0 | 1.0 | 0.00 | 0.00 | 0.00 | 58 | 1045.1 |
| 20260906184528 | 74 | 13 | 2.0 | 2.0 | 0.00 | 0.00 | 0.00 | 61 | 1045.2 |
| 20260906183526 | 72 | 198 | 3.0 | 3.0 | 0.00 | 0.00 | 0.00 | 65 | 1045.3 |
| 20260906182522 | 74 | 149 | 4.0 | 5.0 | 0.00 | 0.00 | 0.00 | 56 | 1045.4 |
| 20260906181520 | 76 | 98 | 1.0 | 1.0 | 0.00 | 0.00 | 0.00 | 57 | 1045.4 |
| 20260906180516 | 74 | 97 | 1.0 | 1.0 | 0.00 | 0.00 | 0.00 | 60 | 1045.5 |
| 20260906175514 | 76 | 110 | 2.0 | 2.0 | 0.00 | 0.00 | 0.00 | 62 | 1045.3 |
| 20260906174513 | 74 | 93 | 0.0 | 1.0 | 0.00 | 0.00 | 0.00 | 62 | 1045.5 |
| 20260906173509 | 73 | 103 | 3.0 | 3.0 | 0.00 | 0.00 | 0.00 | 66 | 1045.5 |
| 20260906172505 | 73 | 129 | 1.0 | 2.0 | 0.00 | 0.00 | 0.00 | 63 | 1045.7 |
| 20260906171500 | 72 | 132 | 3.0 | 5.0 | 0.00 | 0.00 | 0.00 | 64 | 1045.8 |
| 20260906170458 | 72 | 99 | 0.0 | 0.0 | 0.00 | 0.00 | 0.00 | 64 | 1045.8 |
| 20260906165454 | 70 | 110 | 2.0 | 3.0 | 0.00 | 0.00 | 0.00 | 70 | 1045.8 |
| 20260906164453 | 71 | 122 | 4.0 | 6.0 | 0.00 | 0.00 | 0.00 | 69 | 1045.7 |
| 20260906163451 | 72 | 171 | 2.0 | 2.0 | 0.00 | 0.00 | 0.00 | 68 | 1046.1 |
| 20260906162448 | 71 | 122 | 2.0 | 2.0 | 0.00 | 0.00 | 0.00 | 68 | 1046.1 |
| 20260906161443 | 69 | 47 | 3.0 | 3.0 | 0.00 | 0.00 | 0.00 | 75 | 1046.3 |
| 20260906160442 | 69 | 107 | 1.0 | 1.0 | 0.00 | 0.00 | 0.00 | 74 | 1046.2 |
| 20260906155439 | 70 | 127 | 3.0 | 5.0 | 0.00 | 0.00 | 0.00 | 76 | 1046.5 |
| 20260906154436 | 69 | 88 | 3.0 | 3.0 | 0.00 | 0.00 | 0.00 | 74 | 1046.3 |
| 20260906153433 | 68 | 107 | 2.0 | 2.0 | 0.00 | 0.00 | 0.00 | 78 | 1046.2 |
| 20260906152429 | 67 | 86 | 1.0 | 1.0 | 0.00 | 0.00 | 0.00 | 86 | 1046.5 |
| 20260906151430 | 67 | 104 | 0.0 | 0.0 | 0.00 | 0.00 | 0.00 | 83 | 1046.7 |
| 20260906150426 | 67 | 94 | 2.0 | 2.0 | 0.00 | 0.00 | 0.00 | 78 | 1046.6 |
| 20260906145425 | 67 | 118 | 2.0 | 3.0 | 0.00 | 0.00 | 0.00 | 82 | 1046.3 |
| 20260906144421 | 67 | 99 | 3.0 | 5.0 | 0.00 | 0.00 | 0.00 | 78 | 1046.4 |
| 20260906143418 | 67 | 109 | 1.0 | 1.0 | 0.00 | 0.00 | 0.00 | 80 | 1046.3 |
| 20260906142413 | 67 | 106 | 1.0 | 2.0 | 0.00 | 0.00 | 0.00 | 82 | 1046.3 |
| 20260906141413 | 66 | 104 | 1.0 | 2.0 | 0.00 | 0.00 | 0.00 | 81 | 1046.0 |
| 20260906140408 | 65 | 104 | 0.0 | 1.0 | 0.00 | 0.00 | 0.00 | 87 | 1046.0 |
| 20260906135406 | 65 | 97 | 0.0 | 1.0 | 0.00 | 0.00 | 0.00 | 88 | 1046.0 |
| 20260906134403 | 64 | 96 | 0.0 | 0.0 | 0.00 | 0.00 | 0.00 | 89 | 1046.0 |
| 20260906133359 | 62 | 107 | 1.0 | 2.0 | 0.00 | 0.00 | 0.00 | 94 | 1046.1 |
| 20260906132355 | 61 | 97 | 0.0 | 0.0 | 0.00 | 0.00 | 0.00 | 95 | 1045.8 |
| 20260906131352 | 60 | 96 | 0.0 | 0.0 | 0.00 | 0.00 | 0.00 | 95 | 1045.9 |
| 20260906130348 | 59 | 96 | 0.0 | 0.0 | 0.00 | 0.00 | 0.00 | 95 | 1046.1 |
| 20260906125344 | 58 | 96 | 0.0 | 0.0 | 0.00 | 0.00 | 0.00 | 95 | 1045.8 |
| 20260906124341 | 58 | 93 | 0.0 | 0.0 | 0.00 | 0.00 | 0.00 | 95 | 1045.9 |
| 20260906123341 | 57 | 102 | 0.0 | 0.0 | 0.00 | 0.00 | 0.00 | 95 | 1045.6 |
| 20260906122341 | 57 | 96 | 0.0 | 0.0 | 0.00 | 0.00 | 0.00 | 95 | 1046.0 |
| 20260906121339 | 56 | 95 | 0.0 | 0.0 | 0.00 | 0.00 | 0.00 | 95 | 1045.8 |
| 20260906120337 | 55 | 94 | 0.0 | 0.0 | 0.00 | 0.00 | 0.00 | 95 | 1045.6 |
| 20260906115334 | 55 | 96 | 0.0 | 0.0 | 0.00 | 0.00 | 0.00 | 95 | 1045.6 |
| 20260906114328 | 54 | 94 | 0.0 | 0.0 | 0.00 | 0.00 | 0.00 | 95 | 1045.4 |
| 20260906113328 | 53 | 94 | 0.0 | 0.0 | 0.00 | 0.00 | 0.00 | 95 | 1045.2 |
| 20260906112326 | 53 | 93 | 0.0 | 0.0 | 0.00 | 0.00 | 0.00 | 95 | 1045.6 |
| 20260906111325 | 52 | 85 | 0.0 | 0.0 | 0.00 | 0.00 | 0.00 | 95 | 1045.3 |
| 20260906110322 | 52 | 87 | 0.0 | 0.0 | 0.00 | 0.00 | 0.00 | 95 | 1045.0 |
| 20260906105317 | 51 | 87 | 0.0 | 0.0 | 0.00 | 0.00 | 0.00 | 95 | 1044.9 |
| 20260906104317 | 51 | 87 | 0.0 | 0.0 | 0.00 | 0.00 | 0.00 | 95 | 1044.8 |
| 20260906103314 | 52 | 87 | 0.0 | 0.0 | 0.00 | 0.00 | 0.00 | 95 | 1044.9 |
| 20260906102309 | 52 | 86 | 0.0 | 0.0 | 0.00 | 0.00 | 0.00 | 95 | 1044.9 |
| 20260906101306 | 52 | 86 | 0.0 | 0.0 | 0.00 | 0.00 | 0.00 | 95 | 1044.6 |
| 20260906100300 | 52 | 86 | 0.0 | 0.0 | 0.00 | 0.00 | 0.00 | 95 | 1044.7 |
| 20260906095257 | 52 | 83 | 0.0 | 0.0 | 0.00 | 0.00 | 0.00 | 95 | 1044.5 |
| 20260906094256 | 52 | 83 | 0.0 | 0.0 | 0.00 | 0.00 | 0.00 | 95 | 1044.3 |
| 20260906093254 | 52 | 87 | 0.0 | 0.0 | 0.00 | 0.00 | 0.00 | 95 | 1044.4 |
| 20260906092249 | 52 | 87 | 0.0 | 0.0 | 0.00 | 0.00 | 0.00 | 95 | 1044.1 |
| 20260906091247 | 53 | 87 | 0.0 | 0.0 | 0.00 | 0.00 | 0.00 | 95 | 1044.1 |
| 20260906090242 | 53 | 87 | 0.0 | 0.0 | 0.00 | 0.00 | 0.00 | 95 | 1044.1 |
| 20260906085241 | 53 | 87 | 0.0 | 0.0 | 0.00 | 0.00 | 0.00 | 95 | 1044.0 |
| 20260906084241 | 53 | 88 | 0.0 | 0.0 | 0.00 | 0.00 | 0.00 | 95 | 1043.8 |
| 20260906083238 | 53 | 85 | 0.0 | 0.0 | 0.00 | 0.00 | 0.00 | 95 | 1043.9 |
| 20260906082234 | 53 | 85 | 0.0 | 0.0 | 0.00 | 0.00 | 0.00 | 95 | 1043.8 |
| 20260906081231 | 53 | 85 | 0.0 | 0.0 | 0.00 | 0.00 | 0.00 | 95 | 1043.6 |
| 20260906080230 | 54 | 83 | 0.0 | 0.0 | 0.00 | 0.00 | 0.00 | 95 | 1043.5 |
| 20260906075229 | 53 | 86 | 0.0 | 0.0 | 0.00 | 0.00 | 0.00 | 95 | 1043.5 |
| 20260906074224 | 54 | 86 | 0.0 | 0.0 | 0.00 | 0.00 | 0.00 | 95 | 1043.7 |
| 20260906073225 | 54 | 86 | 0.0 | 0.0 | 0.00 | 0.00 | 0.00 | 95 | 1043.7 |
| 20260906072222 | 54 | 88 | 0.0 | 0.0 | 0.00 | 0.00 | 0.00 | 95 | 1043.6 |
| 20260906071217 | 54 | 87 | 0.0 | 0.0 | 0.00 | 0.00 | 0.00 | 95 | 1043.5 |
| 20260906070216 | 54 | 88 | 0.0 | 0.0 | 0.00 | 0.00 | 0.00 | 95 | 1043.4 |
| 20260906065210 | 54 | 88 | 0.0 | 0.0 | 0.00 | 0.00 | 0.00 | 95 | 1043.3 |
| 20260906064207 | 54 | 88 | 0.0 | 0.0 | 0.00 | 0.00 | 0.00 | 95 | 1043.5 |
| 20260906063203 | 55 | 87 | 0.0 | 0.0 | 0.00 | 0.00 | 0.00 | 95 | 1043.5 |
| 20260906062203 | 55 | 87 | 0.0 | 0.0 | 0.00 | 0.00 | 0.00 | 95 | 1043.5 |
| 20260906061200 | 55 | 87 | 0.0 | 0.0 | 0.00 | 0.00 | 0.00 | 95 | 1043.6 |
| 20260906060159 | 55 | 87 | 0.0 | 0.0 | 0.00 | 0.00 | 0.00 | 95 | 1043.6 |
| 20260906055156 | 55 | 88 | 0.0 | 0.0 | 0.00 | 0.00 | 0.00 | 95 | 1043.7 |
| 20260906054151 | 55 | 87 | 0.0 | 0.0 | 0.00 | 0.00 | 0.00 | 95 | 1043.4 |
| 20260906053149 | 55 | 88 | 0.0 | 0.0 | 0.00 | 0.00 | 0.00 | 95 | 1043.6 |
| 20260906052147 | 56 | 89 | 0.0 | 0.0 | 0.00 | 0.00 | 0.00 | 95 | 1043.6 |
| 20260906051143 | 56 | 89 | 0.0 | 0.0 | 0.00 | 0.00 | 0.00 | 95 | 1043.7 |
| 20260906050139 | 56 | 89 | 0.0 | 0.0 | 0.00 | 0.00 | 0.00 | 95 | 1043.7 |
| 20260906045139 | 56 | 88 | 0.0 | 0.0 | 0.00 | 0.00 | 0.00 | 95 | 1043.6 |
| 20260906044136 | 56 | 90 | 0.0 | 0.0 | 0.00 | 0.00 | 0.00 | 95 | 1043.6 |
| 20260906043133 | 56 | 90 | 0.0 | 0.0 | 0.00 | 0.00 | 0.00 | 95 | 1043.7 |
| 20260906042133 | 57 | 90 | 0.0 | 0.0 | 0.00 | 0.00 | 0.00 | 95 | 1043.7 |
| 20260906041129 | 57 | 89 | 0.0 | 0.0 | 0.00 | 0.00 | 0.00 | 95 | 1043.5 |
| 20260906040126 | 57 | 93 | 0.0 | 0.0 | 0.00 | 0.00 | 0.00 | 95 | 1043.8 |
| 20260906035123 | 57 | 92 | 0.0 | 0.0 | 0.00 | 0.00 | 0.00 | 95 | 1043.5 |
| 20260906034124 | 57 | 87 | 0.0 | 0.0 | 0.00 | 0.00 | 0.00 | 95 | 1043.5 |
| 20260906033120 | 57 | 87 | 0.0 | 0.0 | 0.00 | 0.00 | 0.00 | 95 | 1043.4 |
| 20260906032116 | 57 | 87 | 0.0 | 0.0 | 0.00 | 0.00 | 0.00 | 95 | 1043.1 |
| 20260906031113 | 58 | 87 | 0.0 | 0.0 | 0.00 | 0.00 | 0.00 | 95 | 1043.2 |
| 20260906030113 | 58 | 87 | 0.0 | 0.0 | 0.00 | 0.00 | 0.00 | 95 | 1043.3 |
| 20260906025111 | 58 | 87 | 0.0 | 0.0 | 0.00 | 0.00 | 0.00 | 95 | 1043.1 |
| 20260906024107 | 59 | 87 | 0.0 | 0.0 | 0.00 | 0.00 | 0.00 | 95 | 1042.8 |
| 20260906023103 | 59 | 87 | 0.0 | 0.0 | 0.00 | 0.00 | 0.00 | 95 | 1042.8 |
| 20260906022100 | 59 | 87 | 0.0 | 0.0 | 0.00 | 0.00 | 0.00 | 95 | 1043.1 |
| 20260906021054 | 59 | 87 | 0.0 | 0.0 | 0.00 | 0.00 | 0.00 | 95 | 1042.8 |
| 20260906020054 | 59 | 85 | 0.0 | 0.0 | 0.00 | 0.00 | 0.00 | 95 | 1043.1 |
| 20260906015053 | 59 | 89 | 0.0 | 0.0 | 0.00 | 0.00 | 0.00 | 95 | 1043.1 |
| 20260906014050 | 60 | 89 | 0.0 | 0.0 | 0.00 | 0.00 | 0.00 | 95 | 1043.1 |
| 20260906013046 | 60 | 87 | 0.0 | 0.0 | 0.00 | 0.00 | 0.00 | 95 | 1042.7 |
| 20260906012046 | 60 | 86 | 0.0 | 0.0 | 0.00 | 0.00 | 0.00 | 95 | 1042.8 |
| 20260906011042 | 60 | 83 | 1.0 | 1.0 | 0.00 | 0.00 | 0.00 | 95 | 1042.7 |
| 20260906010040 | 60 | 89 | 0.0 | 0.0 | 0.00 | 0.00 | 0.00 | 95 | 1042.6 |
| 20260906005038 | 61 | 88 | 0.0 | 1.0 | 0.00 | 0.00 | 0.00 | 95 | 1042.4 |
| 20260906004039 | 61 | 89 | 0.0 | 0.0 | 0.00 | 0.00 | 0.00 | 95 | 1042.5 |
| 20260906003036 | 61 | 85 | 1.0 | 1.0 | 0.00 | 0.00 | 0.00 | 95 | 1042.1 |
| 20260906002031 | 62 | 84 | 0.0 | 0.0 | 0.00 | 0.00 | 0.00 | 94 | 1042.3 |
| 20260906001027 | 62 | 87 | 0.0 | 1.0 | 0.00 | 0.00 | 0.00 | 94 | 1042.3 |
| 20260906000024 | 63 | 87 | 1.0 | 1.0 | 0.00 | 0.00 | 0.00 | 93 | 1041.9 |
| 20260905235019 | 63 | 88 | 0.0 | 0.0 | 0.00 | 0.00 | 0.00 | 92 | 1041.9 |
| 20260905234014 | 64 | 88 | 0.0 | 0.0 | 0.00 | 0.00 | 0.00 | 91 | 1041.7 |
| 20260905233015 | 65 | 88 | 0.0 | 0.0 | 0.00 | 0.00 | 0.00 | 89 | 1041.7 |
| 20260905232012 | 66 | 88 | 0.0 | 0.0 | 0.00 | 0.00 | 0.00 | 87 | 1041.7 |